Latest Weather Observations for Roseworthy

IDS60901

Issued at 12:51 pm CDT Saturday 13 February 2016 (issued every 10 minutes, with the page automatically refreshed every 10 minutes)

About weather observations | Map of Adelaide area stations | Latest observations for Adelaide area | Other Formats
Station Details ID: 023122 Name: ROSEWORTHY AWS Lat: -34.51 Lon: 138.68 Height: 65.0 m
Data from the previous 72 hours. | See also: Recent months at Roseworthy
Date/Time
CDT
Tmp

°C
App
Tmp
°C
Dew
Point
°C
Rel
Hum
%
Delta-T

°C
Wind Press
QNH
hPa
Press
MSL
hPa
Rain
since
9 am
mm
Dir
 
Spd
km/h
Gust
km/h
Spd
kts
Gust
kts
13/12:30pm 29.3 25.6 9.4 29 11.1 WSW 19 30 10 16 1011.4 - 0.0
13/12:00pm 30.6 27.4 8.3 25 12.3 W 15 26 8 14 1011.6 1011.3 0.0
13/11:30am 28.9 24.6 8.0 27 11.4 WNW 20 24 11 13 1011.9 - 0.0
13/11:00am 28.2 25.9 7.4 27 11.2 W 9 15 5 8 1011.9 - 0.0
13/10:30am 26.0 23.7 7.6 31 9.8 NNW 9 15 5 8 1012.1 - 0.0
13/10:00am 25.2 23.4 7.8 33 9.3 NW 7 13 4 7 1012.3 - 0.0
13/09:30am 24.0 22.9 10.7 43 7.4 NW 7 11 4 6 1012.3 - 0.0
13/09:00am 23.4 23.6 14.1 56 5.5 W 6 9 3 5 1012.5 1012.2 0.0
13/08:30am 21.8 22.4 11.8 53 5.6 CALM 0 4 0 2 1012.4 - 0.0
13/08:00am 19.2 18.3 10.7 58 4.6 NE 6 6 3 3 1012.2 - 0.0
13/07:30am 16.2 14.8 9.4 64 3.5 NNE 7 9 4 5 1011.9 - 0.0
13/07:00am 14.1 12.3 8.1 67 3.0 NE 7 9 4 5 1011.6 - 0.0
13/06:30am 13.8 13.3 8.0 68 2.9 CALM 0 0 0 0 1011.4 - 0.0
13/06:00am 14.1 13.7 8.3 68 2.9 CALM 0 0 0 0 1011.2 1010.9 0.0
13/05:30am 14.0 11.5 8.0 67 3.0 NE 11 13 6 7 1010.8 - 0.0
13/05:00am 14.4 12.5 7.7 64 3.3 NE 7 11 4 6 1010.8 - 0.0
13/04:30am 14.6 12.1 8.1 65 3.3 NE 11 15 6 8 1010.7 - 0.0
13/04:00am 14.2 12.6 7.9 66 3.1 NE 6 9 3 5 1010.8 - 0.0
13/03:30am 15.3 12.8 8.3 63 3.5 NE 11 13 6 7 1010.9 - 0.0
13/03:00am 15.3 12.7 9.4 68 3.1 NNE 13 15 7 8 1010.9 1010.6 0.0
13/02:30am 14.3 14.3 9.7 74 2.4 CALM 0 0 0 0 1011.1 - 0.0
13/02:00am 14.5 13.9 8.9 69 2.9 SW 2 6 1 3 1011.6 - 0.0
13/01:30am 16.3 14.8 9.0 62 3.8 SE 7 7 4 4 1011.6 - 0.0
13/01:00am 17.0 15.2 9.4 61 4.0 S 9 11 5 6 1011.7 - 0.0
13/12:30am 19.0 17.6 8.9 52 5.3 E 6 9 3 5 1011.5 - 0.0
13/12:00am 19.3 16.1 10.0 55 5.0 NE 17 20 9 11 1011.2 1010.9 0.0
 
Date/Time
CDT
Tmp

°C
App
Tmp
°C
Dew
Point
°C
Rel
Hum
%
Delta-T

°C
Wind Press
QNH
hPa
Press
MSL
hPa
Rain
since
9 am
mm
Dir
 
Spd
km/h
Gust
km/h
Spd
kts
Gust
kts
12/11:30pm 18.6 15.9 10.4 59 4.4 NE 15 17 8 9 1011.5 - 0.0
12/11:00pm 19.1 16.5 12.1 64 3.9 NNE 17 17 9 9 1011.9 - 0.0
12/10:30pm 18.1 16.1 11.4 65 3.7 NNE 13 15 7 8 1012.2 - 0.0
12/10:00pm 19.1 19.2 12.8 67 3.6 W 4 9 2 5 1012.5 - 0.0
12/09:30pm 20.5 21.4 13.9 66 3.8 SSW 2 6 1 3 1012.5 - 0.0
12/09:00pm 21.4 20.5 13.6 61 4.5 SW 11 13 6 7 1012.4 1012.1 0.0
12/08:30pm 22.7 20.7 14.0 58 5.1 SW 17 24 9 13 1012.2 - 0.0
12/08:00pm 24.9 21.5 10.4 40 8.1 SW 19 26 10 14 1011.8 - 0.0
12/07:30pm 29.1 24.1 6.5 24 12.0 SW 22 30 12 16 1011.2 - 0.0
12/07:00pm 31.0 26.9 6.1 21 13.3 SW 17 24 9 13 1010.9 - 0.0
12/06:30pm 31.6 26.9 5.2 19 13.9 SW 19 24 10 13 1010.7 - 0.0
12/06:00pm 32.1 27.1 4.8 18 14.4 SW 20 28 11 15 1010.7 1010.4 0.0
12/05:30pm 32.6 27.7 5.2 18 14.6 SW 20 30 11 16 1010.7 - 0.0
12/05:00pm 33.5 28.7 2.4 14 15.9 SW 17 32 9 17 1010.8 - 0.0
12/04:30pm 33.4 28.2 3.3 15 15.6 SW 20 32 11 17 1011.0 - 0.0
12/04:00pm 33.4 28.3 5.9 18 14.8 SW 22 30 12 16 1011.1 - 0.0
12/03:30pm 33.0 27.6 6.3 19 14.5 SW 24 35 13 19 1011.3 - 0.0
12/03:00pm 33.0 28.3 7.8 21 14.0 SW 22 30 12 16 1011.5 1011.2 0.0
12/02:30pm 33.2 28.5 7.9 21 14.1 W 22 28 12 15 1011.7 - 0.0
12/02:00pm 33.3 28.8 8.7 22 13.9 SW 22 32 12 17 1012.0 - 0.0
12/01:30pm 33.9 29.8 7.8 20 14.5 WSW 19 28 10 15 1012.2 - 0.0
12/01:00pm 33.2 30.8 8.6 22 13.8 WNW 11 19 6 10 1012.6 - 0.0
12/12:30pm 31.7 28.9 8.7 24 12.9 WSW 13 24 7 13 1012.9 - 0.0
12/12:00pm 31.1 29.8 9.9 27 12.1 WSW 7 13 4 7 1013.4 1013.1 0.0
12/11:30am 29.8 28.1 9.9 29 11.2 SSE 9 17 5 9 1013.7 - 0.0
12/11:00am 29.3 28.5 11.8 34 10.2 E 7 15 4 8 1014.0 - 0.0
12/10:30am 27.4 26.0 11.0 36 9.3 E 9 13 5 7 1014.3 - 0.0
12/10:00am 25.4 24.6 11.2 41 8.0 E 6 11 3 6 1014.6 - 0.0
12/09:30am 23.5 23.4 10.9 45 7.0 E 2 7 1 4 1014.9 - 0.0
12/09:00am 22.2 22.2 11.0 49 6.2 SSE 2 7 1 4 1015.1 1014.9 0.0
12/08:30am 20.6 20.2 11.2 55 5.2 E 4 7 2 4 1015.1 - 0.0
12/08:00am 17.8 18.1 10.9 64 3.7 CALM 0 0 0 0 1015.1 - 0.0
12/07:30am 15.0 14.0 10.4 74 2.4 E 6 7 3 4 1014.8 - 0.0
12/07:00am 13.1 12.1 8.8 75 2.2 E 4 7 2 4 1014.6 - 0.0
12/06:30am 13.0 11.5 9.1 77 2.0 E 7 7 4 4 1014.5 - 0.0
12/06:00am 13.8 12.3 9.3 74 2.3 E 7 9 4 5 1014.2 1013.9 0.0
12/05:30am 13.6 11.8 9.3 75 2.2 ENE 9 11 5 6 1014.0 - 0.0
12/05:00am 14.0 12.2 9.6 75 2.3 ENE 9 11 5 6 1014.1 - 0.0
12/04:30am 13.7 11.9 9.6 76 2.1 ENE 9 11 5 6 1013.9 - 0.0
12/04:00am 13.7 11.8 9.2 74 2.3 E 9 11 5 6 1013.8 - 0.0
12/03:30am 16.4 15.0 10.9 70 2.9 ESE 9 13 5 7 1013.7 - 0.0
12/03:00am 16.9 15.2 11.2 69 3.1 ESE 11 15 6 8 1014.1 1013.8 0.0
12/02:30am 16.3 14.4 10.6 69 3.0 E 11 15 6 8 1014.0 - 0.0
12/02:00am 17.7 15.6 11.0 65 3.6 SE 13 17 7 9 1014.4 - 0.0
12/01:30am 17.3 15.9 10.9 66 3.4 ESE 9 13 5 7 1014.8 - 0.0
12/01:00am 17.5 15.8 11.1 66 3.5 ESE 11 15 6 8 1014.8 - 0.0
12/12:30am 17.8 16.2 11.4 66 3.5 ESE 11 17 6 9 1015.1 - 0.0
12/12:00am 17.2 15.7 10.6 65 3.5 E 9 11 5 6 1015.1 1014.9 0.0
 
Date/Time
CDT
Tmp

°C
App
Tmp
°C
Dew
Point
°C
Rel
Hum
%
Delta-T

°C
Wind Press
QNH
hPa
Press
MSL
hPa
Rain
since
9 am
mm
Dir
 
Spd
km/h
Gust
km/h
Spd
kts
Gust
kts
11/11:30pm 18.5 16.2 10.6 60 4.3 ESE 13 20 7 11 1014.9 - 0.0
11/11:00pm 19.3 16.7 10.6 57 4.7 SE 15 20 8 11 1015.1 - 0.0
11/10:30pm 19.7 17.1 10.7 56 4.9 SE 15 20 8 11 1015.2 - 0.0
11/10:00pm 20.4 17.1 10.8 54 5.3 SE 19 28 10 15 1014.9 - 0.0
11/09:30pm 21.3 18.3 10.8 51 5.8 SE 17 24 9 13 1014.4 - 0.0
11/09:00pm 22.9 18.9 10.3 45 6.9 SE 22 30 12 16 1014.0 1013.7 0.0
11/08:30pm 24.6 20.7 9.3 38 8.3 ESE 20 26 11 14 1013.7 - 0.0
11/08:00pm 26.9 22.7 8.4 31 10.0 SE 20 28 11 15 1013.4 - 0.0
11/07:30pm 28.7 24.0 7.9 27 11.3 SSE 22 30 12 16 1012.9 - 0.0
11/07:00pm 30.2 25.2 8.0 25 12.2 SE 24 33 13 18 1012.5 - 0.0
11/06:30pm 31.7 26.9 7.4 22 13.3 SE 22 30 12 16 1012.0 - 0.0
11/06:00pm 33.0 28.5 7.1 20 14.2 SE 20 26 11 14 1011.9 1011.6 0.0
11/05:42pm 33.2 27.4 7.9 21 14.1 SSW 28 48 15 26 1011.3 - 0.0
11/05:30pm 32.7 26.8 8.9 23 13.4 SW 30 43 16 23 1011.6 - 0.0
11/05:00pm 33.2 27.9 8.6 22 13.8 SSW 26 39 14 21 1011.5 - 0.0
11/04:30pm 33.0 27.6 7.8 21 14.0 SSW 26 39 14 21 1011.7 - 0.0
11/04:00pm 33.1 28.2 8.5 22 13.8 SSW 24 37 13 20 1011.9 - 0.0
11/03:30pm 34.0 29.3 9.3 22 14.1 SW 24 35 13 19 1012.1 - 0.0
11/03:00pm 33.3 28.6 9.4 23 13.6 SSW 24 39 13 21 1012.4 1012.1 0.0
11/02:30pm 32.7 28.3 8.9 23 13.4 SSW 22 33 12 18 1012.5 - 0.0
11/02:00pm 33.0 29.3 7.8 21 14.0 S 17 33 9 18 1012.7 - 0.0
11/01:30pm 32.0 27.2 8.9 24 13.0 SSW 24 35 13 19 1013.1 - 0.0
11/01:00pm 32.6 29.5 7.4 21 13.9 SSE 13 22 7 12 1013.5 - 0.0
11/12:30pm 31.5 28.8 7.2 22 13.3 S 11 17 6 9 1013.7 - 0.0
11/12:00pm 30.7 28.0 7.2 23 12.8 SE 11 22 6 12 1014.1 1013.8 0.0
11/11:30am 29.8 26.3 7.1 24 12.3 ESE 15 26 8 14 1014.3 - 0.0
11/11:00am 27.9 24.8 7.2 27 11.1 SE 13 20 7 11 1014.7 - 0.0
11/10:30am 26.2 23.2 9.1 34 9.4 SSE 15 20 8 11 1015.2 - 0.0
11/10:00am 24.3 20.8 10.2 41 7.8 SE 19 26 10 14 1015.4 - 0.0
11/09:30am 22.4 18.5 10.9 48 6.4 SE 22 30 12 16 1015.7 - 0.0
11/09:00am 21.0 17.6 11.3 54 5.4 SSE 20 26 11 14 1016.0 1015.8 0.0
11/08:30am 19.7 18.3 10.9 57 4.8 SE 9 13 5 7 1016.0 - 0.0
11/08:00am 18.7 17.8 11.3 62 4.1 SE 7 9 4 5 1015.8 - 0.0
11/07:30am 16.1 15.2 10.8 71 2.8 S 6 9 3 5 1015.5 - 0.0
11/07:00am 14.0 12.8 10.2 78 2.0 ESE 7 9 4 5 1015.1 - 0.0
11/06:30am 14.5 13.2 10.1 75 2.3 S 7 9 4 5 1014.7 - 0.0
11/06:00am 15.9 14.6 11.3 74 2.5 SSE 9 11 5 6 1014.4 1014.1 0.0
11/05:30am 16.3 14.6 11.2 72 2.7 SE 11 13 6 7 1014.1 - 0.0
11/05:00am 17.2 15.3 11.7 70 3.0 SE 13 17 7 9 1013.9 - 0.0
11/04:30am 16.8 14.5 10.4 66 3.4 SE 13 15 7 8 1013.9 - 0.0
11/04:00am 16.9 14.4 9.8 63 3.7 SE 13 17 7 9 1013.6 - 0.0
11/03:30am 17.5 15.0 9.7 60 4.1 SE 13 17 7 9 1013.6 - 0.0
11/03:00am 17.4 15.1 9.1 58 4.3 SE 11 13 6 7 1013.6 1013.3 0.0
11/02:30am 17.6 15.7 9.0 57 4.5 ESE 9 13 5 7 1013.6 - 0.0
11/02:00am 18.4 15.0 9.2 55 4.8 SE 17 20 9 11 1013.8 - 0.0
11/01:30am 18.7 16.1 7.8 49 5.6 ESE 11 15 6 8 1014.1 - 0.0
11/01:00am 18.9 15.9 6.1 43 6.3 ESE 11 13 6 7 1014.1 - 0.0
11/12:30am 17.7 16.0 8.3 54 4.8 E 7 9 4 5 1014.2 - 0.0
11/12:00am 18.6 17.1 8.6 52 5.2 ESE 6 9 3 5 1014.0 1013.7 0.0
 
Date/Time
CDT
Tmp

°C
App
Tmp
°C
Dew
Point
°C
Rel
Hum
%
Delta-T

°C
Wind Press
QNH
hPa
Press
MSL
hPa
Rain
since
9 am
mm
Dir
 
Spd
km/h
Gust
km/h
Spd
kts
Gust
kts
10/11:30pm 20.1 18.4 8.4 47 6.1 S 7 15 4 8 1014.0 - 0.0
10/11:00pm 20.7 17.9 7.0 41 7.0 SE 11 15 6 8 1014.0 - 0.0
10/10:30pm 21.1 17.3 5.9 37 7.6 ESE 15 22 8 12 1013.9 - 0.0
10/10:00pm 21.5 16.8 5.0 34 8.2 SE 19 26 10 14 1013.8 - 0.0
10/09:30pm 22.1 16.7 4.6 32 8.6 SE 22 32 12 17 1013.3 - 0.0
10/09:00pm 22.7 17.2 6.0 34 8.5 ESE 24 33 13 18 1013.2 1012.9 0.0
10/08:30pm 24.4 19.9 8.4 36 8.6 SE 22 30 12 16 1012.9 - 0.0
10/08:00pm 26.7 22.7 9.1 33 9.7 SE 20 26 11 14 1012.5 - 0.0
10/07:30pm 28.3 26.8 13.0 39 9.0 SW 13 20 7 11 1012.2 - 0.0
10/07:00pm 29.6 26.4 11.2 32 10.6 SW 19 24 10 13 1011.9 - 0.0
10/06:30pm 31.0 27.1 8.7 25 12.4 WSW 19 26 10 14 1011.7 - 0.0
10/06:00pm 31.7 27.0 6.0 20 13.8 SW 20 26 11 14 1011.4 1011.1 0.0
10/05:30pm 31.8 26.4 4.6 18 14.2 SW 22 30 12 16 1011.3 - 0.0
10/05:00pm 32.9 28.1 5.5 18 14.6 SW 20 28 11 15 1011.1 - 0.0
10/04:30pm 32.1 27.7 9.0 24 13.0 SW 22 30 12 16 1011.3 - 0.0
10/04:00pm 31.7 27.4 12.0 30 11.6 SW 26 32 14 17 1011.4 - 0.0
10/03:30pm 33.7 30.0 6.1 18 15.0 SW 15 20 8 11 1011.4 - 0.0
10/03:00pm 33.4 29.0 6.6 19 14.6 SW 19 24 10 13 1011.7 1011.4 0.0
10/02:30pm 33.8 29.3 6.2 18 15.0 SW 19 26 10 14 1012.0 - 0.0
10/02:00pm 33.7 29.4 5.3 17 15.2 SW 17 24 9 13 1012.1 - 0.0
10/01:30pm 33.9 30.0 5.4 17 15.3 SSW 15 26 8 14 1012.5 - 0.0
10/01:00pm 32.6 29.0 5.2 18 14.6 SSW 13 24 7 13 1012.9 - 0.0

Latest Capital City Observations: Canberra | Sydney | Melbourne | Brisbane | Adelaide | Perth | Hobart | Darwin

Other Formats:

Comma delimited format used in spreadsheet applications
http://www.bom.gov.au/fwo/IDS60901/IDS60901.95671.axf

JavaScript Object Notation format (JSON) in row-major order
http://www.bom.gov.au/fwo/IDS60901/IDS60901.95671.json